Location: Baili�vre
(50.0696°N, 4.2409°E)
Time: 02:44:49
(UTC+00:00)

SL-16 R/B - Pass Details

Date: 08 August 2020
Orbit: 843 x 845 km, 71.0° (Epoch: 25 September)

Event Time Altitude Azimuth Distance (km) Brightness Sun altitude
Rises 23:17:20 0° 322° (NW) 3,416 6.3 -23.8°
Reaches altitude 10° 23:20:15 10° 308° (NW) 2,476 5.2 -23.9°
Maximum altitude 23:24:34 23° 258° (WSW) 1,734 3.7 -23.9°
Enters shadow 23:25:30 22° 244° (WSW) 1,774 3.7 -24.0°
